IK3ZGB Weather Reports


Display with metric or nautical units.
time (UTC)temp
F
wind
direction
speed
MPH
gust
MPH
rain 1hr
in
rain 24hr
in
rain mn
in
humidity
%
barometer
mb
20260505194844 59 0.0 0.0 0.00 0.00 0.00 86 1015.7
20260505193844 59 0.0 0.0 0.00 0.00 0.00 86 1015.9
20260505192845 58 0.0 0.0 0.00 0.00 0.00 86 1015.7
20260505191844 58 0.0 0.0 0.00 0.00 0.00 86 1015.5
20260505190845 58 0.0 0.0 0.00 0.00 0.00 86 1015.4
20260505185844 58 0.0 0.0 0.00 0.00 0.00 86 1015.5
20260505184844 58 0.0 0.0 0.00 0.00 0.00 86 1015.2
20260505183844 58 0.0 0.0 0.00 0.00 0.00 86 1015.4
20260505182844 58 0.0 0.0 0.00 0.00 0.00 86 1015.2
20260505181845 58 0.0 0.0 0.00 0.00 0.00 86 1015.1
20260505180844 58 0.0 0.0 0.00 0.00 0.00 86 1015.0
20260505175844 58 0.0 0.0 0.00 0.00 0.00 86 1015.1
20260505174845 58 0.0 0.0 0.00 0.00 0.00 86 1015.0
20260505173844 58 0.0 0.0 0.00 0.00 0.00 86 1014.9
20260505172845 58 0.0 0.0 0.00 0.00 0.00 86 1015.2
20260505171845 58 0.0 0.0 0.00 0.00 0.00 86 1015.2
20260505170845 58 0.0 0.0 0.00 0.00 0.00 86 1015.0
20260505165846 58 0.0 0.0 0.00 0.00 0.00 86 1015.1
20260505164844 58 0.0 0.0 0.00 0.00 0.00 86 1015.1
20260505163845 58 0.0 0.0 0.00 0.00 0.00 86 1015.1
20260505162845 57 0.0 0.0 0.00 0.00 0.00 86 1015.0
20260505161844 58 0.0 0.0 0.00 0.00 0.00 86 1015.1
20260505160844 57 0.0 0.0 0.00 0.00 0.00 86 1015.2
20260505152845 58 0.0 0.0 0.00 0.00 0.00 85 1015.2
20260505151844 58 0.0 0.0 0.00 0.00 0.00 84 1015.3
20260505150844 59 0.0 0.0 0.00 0.00 0.00 84 1015.2
20260505124844 61 0.0 0.0 0.00 0.00 0.00 80 1015.6
20260505123845 62 0.0 0.0 0.00 0.00 0.00 79 1015.7
20260505122845 62 0.0 0.0 0.00 0.00 0.00 80 1015.9
20260505121844 62 0.0 0.0 0.00 0.00 0.00 80 1015.9
20260505120845 62 0.0 0.0 0.00 0.00 0.00 80 1015.7
20260505115845 62 0.0 0.0 0.00 0.00 0.00 80 1015.7
20260505114844 62 0.0 0.0 0.00 0.00 0.00 79 1015.9
20260505113844 62 0.0 0.0 0.00 0.00 0.00 79 1015.9
20260505112846 62 0.0 0.0 0.00 0.00 0.00 80 1015.7
20260505111845 62 0.0 0.0 0.00 0.00 0.00 81 1015.6
20260505110845 62 0.0 0.0 0.00 0.00 0.00 82 1015.6
20260505101845 62 0.0 0.0 0.00 0.00 0.00 80 1016.2
20260505100845 64 0.0 0.0 0.00 0.00 0.00 80 1016.3
20260505095845 63 0.0 0.0 0.00 0.00 0.00 79 1016.0
20260505094844 63 0.0 0.0 0.00 0.00 0.00 79 1016.0
20260505093844 63 0.0 0.0 0.00 0.00 0.00 79 1015.8
20260505092844 63 0.0 0.0 0.00 0.00 0.00 78 1015.9
20260505091845 63 0.0 0.0 0.00 0.00 0.00 77 1016.1
20260505090845 64 0.0 0.0 0.00 0.00 0.00 78 1015.6
20260505085846 64 0.0 0.0 0.00 0.00 0.00 76 1015.8
20260505084845 64 0.0 0.0 0.00 0.00 0.00 77 1015.9
20260505083845 64 0.0 0.0 0.00 0.00 0.00 77 1016.2
20260505082844 64 0.0 0.0 0.00 0.00 0.00 78 1016.3
20260505081845 63 0.0 0.0 0.00 0.00 0.00 79 1016.2
20260505080844 64 0.0 0.0 0.00 0.00 0.00 79 1016.0
20260505075846 63 0.0 0.0 0.00 0.00 0.00 80 1015.9
20260505074845 63 0.0 0.0 0.00 0.00 0.00 80 1015.5
20260505073846 63 0.0 0.0 0.00 0.00 0.00 80 1015.7
20260505072844 63 0.0 0.0 0.00 0.00 0.00 81 1015.9
20260505071845 63 0.0 0.0 0.00 0.00 0.00 80 1016.1
20260505070844 63 0.0 0.0 0.00 0.00 0.00 80 1015.7
20260505065844 63 0.0 0.0 0.00 0.00 0.00 80 1015.7
20260505064844 63 0.0 0.0 0.00 0.00 0.00 80 1015.7
20260505063845 62 0.0 0.0 0.00 0.00 0.00 80 1015.9
20260505062844 62 0.0 0.0 0.00 0.00 0.00 80 1015.5
20260505061844 63 0.0 0.0 0.00 0.00 0.00 79 1015.7
20260505060844 62 0.0 0.0 0.00 0.00 0.00 79 1015.4
20260505055845 62 0.0 0.0 0.00 0.00 0.00 79 1015.5
20260505054844 62 0.0 0.0 0.00 0.00 0.00 78 1015.4
20260505053844 62 0.0 0.0 0.00 0.00 0.00 79 1015.3
20260505052844 62 0.0 0.0 0.00 0.00 0.00 79 1015.2
20260505051845 62 0.0 0.0 0.00 0.00 0.00 79 1015.2
20260505050845 61 0.0 0.0 0.00 0.00 0.00 79 1015.1
20260505040845 61 0.0 0.0 0.00 0.00 0.00 74 1015.0
20260505035846 61 0.0 0.0 0.00 0.00 0.00 73 1015.2
20260505034845 61 0.0 0.0 0.00 0.00 0.00 72 1014.9
20260505033844 61 0.0 0.0 0.00 0.00 0.00 72 1015.2
20260505032844 61 0.0 0.0 0.00 0.00 0.00 71 1015.5
20260505031845 61 0.0 0.0 0.00 0.00 0.00 71 1015.2
20260505030845 61 0.0 0.0 0.00 0.00 0.00 70 1015.2
20260505025845 62 0.0 0.0 0.00 0.00 0.00 70 1015.2
20260505024843 61 0.0 0.0 0.00 0.00 0.00 70 1015.4
20260505023844 62 0.0 0.0 0.00 0.00 0.00 70 1015.5
20260505022844 62 0.0 0.0 0.00 0.00 0.00 70 1015.4
20260505021845 61 0.0 0.0 0.00 0.00 0.00 70 1015.5
20260505020844 62 0.0 0.0 0.00 0.00 0.00 70 1015.7
20260505015845 62 0.0 0.0 0.00 0.00 0.00 70 1015.5
20260505014844 62 0.0 0.0 0.00 0.00 0.00 70 1015.6
20260505013845 63 0.0 0.0 0.00 0.00 0.00 70 1015.7
20260505012845 63 0.0 0.0 0.00 0.00 0.00 69 1015.6
20260505011845 62 0.0 0.0 0.00 0.00 0.00 70 1015.7
20260505010844 63 0.0 0.0 0.00 0.00 0.00 69 1015.7
20260505005844 62 0.0 0.0 0.00 0.00 0.00 69 1016.0
20260505004845 63 0.0 0.0 0.00 0.00 0.00 69 1016.2
20260505003844 63 0.0 0.0 0.00 0.00 0.00 69 1016.2
20260505002844 63 0.0 0.0 0.00 0.00 0.00 69 1016.3
20260505001844 63 0.0 0.0 0.00 0.00 0.00 69 1016.4
20260505000844 63 0.0 0.0 0.00 0.00 0.00 69 1016.2
20260504235843 63 0.0 0.0 0.00 0.00 0.00 69 1016.6
20260504234845 63 0.0 0.0 0.00 0.00 0.00 68 1016.3
20260504233846 63 0.0 0.0 0.00 0.00 0.00 68 1016.4
20260504232845 63 0.0 0.0 0.00 0.00 0.00 68 1016.6
20260504231844 64 0.0 0.0 0.00 0.00 0.00 67 1016.7
20260504230845 64 0.0 0.0 0.00 0.00 0.00 67 1016.7
20260504225843 64 0.0 0.0 0.00 0.00 0.00 67 1016.7
20260504224843 65 0.0 0.0 0.00 0.00 0.00 67 1016.5
20260504223844 65 0.0 0.0 0.00 0.00 0.00 66 1016.7
20260504222843 65 0.0 0.0 0.00 0.00 0.00 66 1016.7
20260504221845 65 0.0 0.0 0.00 0.00 0.00 65 1016.7
20260504220844 66 0.0 0.0 0.00 0.00 0.00 65 1016.5
20260504215843 66 0.0 0.0 0.00 0.00 0.00 64 1016.9
20260504214844 66 0.0 0.0 0.00 0.00 0.00 63 1016.9
20260504213844 66 0.0 0.0 0.00 0.00 0.00 63 1016.7
20260504212846 66 0.0 0.0 0.00 0.00 0.00 62 1016.9
20260504211845 66 0.0 0.0 0.00 0.00 0.00 62 1016.9
20260504210845 68 0.0 0.0 0.00 0.00 0.00 62 1016.8
20260504205845 67 0.0 0.0 0.00 0.00 0.00 62 1016.8
20260504204843 67 0.0 0.0 0.00 0.00 0.00 62 1016.7
20260504203843 68 0.0 0.0 0.00 0.00 0.00 62 1016.7
20260504202845 68 0.0 0.0 0.00 0.00 0.00 62 1016.5
20260504201845 68 0.0 0.0 0.00 0.00 0.00 62 1016.4
20260504200845 68 0.0 0.0 0.00 0.00 0.00 62 1016.5
20260504195845 68 0.0 0.0 0.00 0.00 0.00 61 1016.5